Showing default

KONDOR FKA 1, 56756

Orbit data source: Space-Track

KONDOR FKA 1, 56756 is a payload satellite owned by NPO Mash (CIS) in SSO that was launched on Fri, 26 May 2023 UTC via a SOYUZ-2-1A launch vehicle from the Vostochny Cosmodrome (VOSTO). Payload-class satellites include a variety of spacecraft equipped with specific instruments for various scientific and technological missions. These include communications satellites like Starlink; space stations such as the ISS; scientific satellites like the Hubble; Earth observation satellites from companies like Planet Labs, Umbra, and HawkEye 360; GPS; miniature CubeSats for education and research; and military/defense satellites.

Loading next visibility...
Identifier
56756, 2023-074A
Orbit
SSO
Country
Flag of CISCIS
Related business
Manufacturer
NPOMA?
Mission
Operational Civil Radar Imaging
Bus & Motor
KONDOR, Unknown motor
Mass
1,050 kg wet, 1,050 kg dry
Launch date (UTC)
2023-05-26 (3 years ago)
Launch vehicle
SOYUZ-2-1A
Launch site
Vostochny Cosmodrome (VOSTO)
Object type
Payload
Rocket body
Debris
Shape & HBR
Box + 2 Pan + 1 Dish, 2.5 m
Radar Cross Section
3.234 m², Large (>1 m²)

Expand to show TLE details & history
Last TLE update: 22 hours ago

TLE from 22 hours ago
0 KONDOR FKA 1
1 56756U 23074A   26172.49986750  .00003081  00000-0  14738-3 0  9999
2 56756  97.4419   7.0005 0001717  89.4540 270.6892 15.19734907170348
Epoch: 2026-06-21T11:59Z
TLE epoch observation values (Epoch: 2026-06-21T11:59:48.551Z)
Latitude
-0.00002°
Longitude
-82.65105°
Altitude
509.716 km
Speed
7.609 km/s
True Right ascension
00h 28m 00s
True Declination
0° 00' 00"
Sunlit
Object was in daylight at epoch
Visualization orbit readout
Latitude
Unknown
Longitude
Unknown
Altitude
Unknown
Speed
Unknown
Apparent Right ascension
Unknown
Apparent Declination
Unknown
Sunlit
N/A
Visualization observer readout
Local Sidereal Time
21:29:21
Azimuth
Unknown
Elevation
Unknown
Doppler factor
Unknown
Orbital elements
Apogee altitude
504.79 km
Perigee altitude
502.427 km
Semi-major axis
6,881.746 km
Eccentricity
0.00017
Inclination
97.4419°
RAAN
7.0005°
Arg. of periapsis
89.454°
True anomaly
270.66953°
Mean anomaly
270.6892°
Eccentric anomaly
270.67936°
Mean motion
3.80185 °/min
Orbital period
94.69 mins
BSTAR
0.00014738
Loading maneuver chart data...
Computing Atmospheric mass density...
Loading historical data...
Loading historical data...
Loading historical data...
Loading historical data...
Loading historical data...
Loading historical data...
Loading historical data...
Other satellites on launch #74 in the year 2023 (2023-05-26 UTC)

Documentation

Showing up to 5 results
|